Tracking 19625 objects as of 26-May-2019
HD Live streaming from Space Station
objects crossing your sky now
Watch Starlink satellites crossing your sky!

ARIANE 44LP DEB

Track ARIANE 44LP DEB now!


NORAD ID: 26794
Int'l Code: 1991-015L
Perigee: 591.4 km
Apogee: 28,421.7 km
Inclination: 7.3 °
Period: 500.4 minutes
Semi major axis: 20877 km
RCS: 0.5191 m2 (medium)
Launch date: March 2, 1991
Source: France (FR)
Launch site: FRENCH GUIANA (FRGUI)

Note: This is SATELLITE DEBRIS
aabbcc
Your satellite tracking list
Your tracking list is empty




NASA's NSSDC Master Catalog

Two Line Element Set (TLE):
1 26794U 91015L   19144.74216834 -.00000114 +00000-0 -97798-4 0  9990
2 26794 007.3496 239.1615 6665122 194.5612 162.8413 02.87794695053675
Source of the keplerian elements: AFSPC